Wind_Speed
12 12 11 9 5 3 3 4 5 6 7 6 4 4 5 5 5 6 8 10 10 11 12 12 11 13 15 15 16 16 14 13 11 11 13 15 17 19 20 20 19 18 16 15 15 14 13 14 13 12 12 11 9 8 6 5 6 7 10 12 13 13 14 16 18 19 20 18 13 11 9 7 7 7 8 10 11 13 14 16 18 19 20 21 22 24
10 10 9 6 4 3 3 3 3 4 5 5 4 4 5 6 7 7 8 9 10 12 12 12 11 11 14 12 13 16 15 14 13 11 11 12 13 16 20 22 21 19 18 17 17 16 16 15 14 14 14 13 11 8 7 6 6 7 9 11 12 13 14 16 18 19 20 19 14 12 9 7 6 5 7 8 9 10 11 12 14 16 17 18 19 20
9 9 5 2 2 2 3 3 3 4 4 4 4 4 4 6 8 8 8 9 10 11 12 13 13 11 12 10 10 15 17 15 14 13 12 12 12 13 15 19 22 21 19 18 18 17 17 16 16 16 15 15 12 9 9 9 9 9 10 11 11 13 14 16 17 18 20 19 16 13 10 7 6 6 6 7 8 9 9 10 10 12 13 14 15 16
7 5 2 1 2 3 4 5 5 5 5 5 5 5 6 7 9 9 9 10 11 10 11 14 15 14 13 11 10 13 17 18 17 16 15 13 13 13 13 16 20 21 20 19 18 18 19 18 17 16 16 16 13 10 10 10 9 9 10 10 11 12 13 14 17 18 19 19 16 13 11 8 5 5 6 7 8 8 8 8 8 9 10 11 12 12
8 5 4 6 6 6 6 6 7 7 7 8 7 8 9 9 10 11 12 13 12 11 11 14 16 17 16 14 12 12 14 16 16 17 17 15 15 16 16 16 20 22 22 22 21 20 20 18 17 17 18 17 12 10 10 10 10 10 11 12 12 12 12 13 16 16 17 18 15 11 9 7 5 4 5 6 6 5 3 3 4 5 7 8 9 10
8 7 8 9 8 9 9 8 8 8 9 9 9 9 9 9 9 10 12 13 12 11 10 10 10 12 15 15 13 13 13 12 12 13 15 16 17 19 20 19 20 22 23 23 22 21 21 19 19 19 19 16 10 7 8 10 11 13 14 14 14 13 12 13 14 14 15 16 13 10 8 6 4 2 2 3 3 2 2 3 4 4 5 6 7 8
10 10 8 8 9 10 9 8 8 8 9 10 10 9 9 8 7 7 9 9 8 8 7 7 7 7 13 15 13 14 14 13 13 13 15 16 19 21 22 22 21 22 23 24 24 24 24 23 21 20 20 15 8 5 6 9 11 13 15 15 15 14 13 13 13 12 13 14 12 9 7 6 5 3 1 1 0 2 3 5 6 6 6 5 5 6
11 10 7 7 9 11 10 9 8 7 8 9 9 9 9 8 6 5 6 5 6 7 6 7 9 9 12 15 14 15 17 17 17 16 15 15 17 21 24 25 26 24 23 25 27 27 26 24 21 20 19 14 6 5 6 7 8 10 12 14 15 15 14 13 12 12 11 11 11 8 6 6 5 4 3 2 3 3 4 7 8 8 8 7 6 5
12 12 9 7 9 9 8 7 5 5 6 8 8 9 10 10 9 8 6 6 6 6 7 8 9 7 8 11 12 14 15 15 13 11 9 10 12 17 22 28 30 27 24 26 25 22 20 19 18 17 17 14 8 7 8 7 6 7 10 12 13 14 14 13 13 12 11 10 9 6 5 5 5 6 5 4 4 5 7 8 10 11 11 10 8 7
13 14 13 12 11 8 4 3 3 3 5 6 7 9 11 11 11 9 7 7 6 6 7 9 9 7 5 10 11 9 8 9 9 6 5 7 11 13 18 23 26 25 26 27 20 13 12 12 12 14 15 13 10 9 9 9 8 8 10 12 13 13 14 13 13 13 12 10 8 5 5 5 5 6 6 5 5 7 9 10 11 12 12 12 11 10
10 13 15 14 12 8 5 4 4 4 7 9 8 9 11 11 11 9 7 7 4 4 8 10 11 9 4 7 6 3 6 9 9 7 6 10 12 12 14 16 18 22 24 23 16 12 12 13 13 15 16 13 11 11 11 10 9 8 9 9 10 11 12 11 12 12 12 10 8 6 6 6 5 5 6 6 7 9 10 11 11 12 12 12 12 11
8 9 12 14 12 10 8 8 8 8 10 12 12 11 10 8 7 6 5 6 3 3 7 9 9 9 6 4 4 4 8 8 8 9 10 13 13 10 11 11 12 17 18 16 15 14 14 15 15 16 17 13 10 10 10 11 11 8 7 7 7 8 8 9 10 10 10 9 7 6 7 7 6 5 6 7 8 10 10 11 11 11 11 11 11 11
12 9 8 10 12 12 11 11 11 11 13 14 15 13 8 2 1 2 3 3 3 4 6 6 6 7 9 9 5 5 7 8 9 10 11 14 14 11 10 10 8 9 14 15 15 15 14 15 15 16 17 13 10 9 8 9 11 10 8 7 6 5 5 7 8 8 8 8 7 7 7 7 7 6 6 7 8 9 10 11 11 11 11 11 11 11
14 10 7 7 11 13 14 15 14 14 14 14 16 15 8 2 3 2 3 1 3 5 5 7 5 5 10 9 5 5 7 9 9 8 11 15 16 15 13 10 7 5 9 12 15 16 14 14 14 15 15 13 10 9 8 8 9 10 10 10 8 6 6 7 7 7 7 7 7 7 7 7 7 6 6 7 8 9 9 11 11 11 10 10 10 11
10 9 7 5 6 8 11 13 13 13 13 13 14 14 13 9 4 4 3 2 3 3 4 7 5 3 5 4 4 6 6 6 5 7 13 17 18 19 18 12 6 4 5 8 12 16 16 14 14 14 14 13 12 11 10 9 8 9 11 12 11 9 7 6 7 7 7 8 8 8 7 7 6 6 7 8 8 8 9 10 10 10 10 9 9 10
9 10 9 7 7 7 9 10 10 12 13 13 13 14 15 15 11 7 5 4 4 1 3 6 5 4 5 5 4 3 3 3 4 9 12 15 18 20 19 15 8 5 5 6 8 14 18 18 17 16 14 13 13 13 13 12 10 10 11 13 13 11 9 8 8 8 8 9 9 8 7 7 7 6 7 8 8 9 9 9 9 10 10 10 10 9
7 9 8 8 9 10 12 12 10 12 12 10 12 14 13 12 11 8 4 3 3 1 3 7 6 5 6 5 4 4 4 5 7 11 12 14 16 17 18 16 12 11 10 8 6 10 17 20 21 21 19 16 14 14 15 15 14 12 12 14 16 15 14 12 10 10 10 11 10 9 8 8 7 7 7 7 9 10 10 10 10 11 11 11 10 10
10 13 13 13 13 12 13 14 12 12 12 10 10 13 12 9 10 8 3 1 1 1 4 7 8 9 9 6 7 9 8 9 11 11 10 11 12 13 14 14 15 16 16 14 11 8 11 18 21 23 24 21 17 16 17 16 16 15 14 16 18 18 18 16 14 13 13 13 13 11 10 9 8 8 8 8 10 11 11 11 11 11 11 11 10 11
9 12 13 13 14 12 12 13 12 10 12 12 10 11 11 8 7 8 5 1 1 2 3 5 7 10 12 10 10 12 12 12 10 8 6 7 8 8 8 8 11 14 16 18 18 14 9 13 19 23 25 24 20 19 19 18 18 19 19 19 18 17 18 18 17 16 15 16 17 15 13 12 11 11 10 11 12 13 12 12 12 12 11 11 10 10
7 8 7 9 12 13 13 13 12 10 11 12 11 11 12 10 8 8 7 4 3 3 1 2 3 6 11 12 12 13 13 12 10 8 7 7 5 5 5 4 4 6 9 13 16 15 11 10 15 20 23 24 22 21 20 20 20 20 19 18 17 17 18 18 19 20 20 20 20 17 15 14 14 14 13 13 14 15 14 14 14 14 13 12 12 12
7 7 8 9 11 11 11 13 13 12 11 11 11 10 10 10 8 7 8 6 4 3 3 2 2 3 6 9 13 15 15 13 12 10 9 8 7 7 7 7 6 5 5 6 7 9 8 7 9 14 17 20 23 23 20 19 19 19 18 18 17 19 20 19 19 22 23 24 24 21 17 16 16 16 16 17 17 17 17 17 16 16 16 15 14 14
7 8 9 11 12 11 10 10 11 11 11 10 11 11 10 10 7 4 5 7 7 5 3 3 2 3 6 12 17 17 15 14 14 12 11 10 9 9 9 8 8 8 7 7 7 7 6 6 7 10 11 12 16 20 21 21 21 21 21 20 20 21 21 21 21 22 24 25 26 25 21 18 17 18 18 19 20 20 20 20 19 19 19 18 17 18
10 10 11 13 14 15 13 12 11 11 12 11 12 13 12 11 11 7 5 6 8 7 5 3 2 4 10 16 18 17 16 16 15 14 13 13 12 12 11 11 10 10 10 10 11 11 11 10 9 9 11 11 11 13 15 18 19 20 21 22 23 23 23 23 24 26 27 27 27 29 28 22 19 20 20 21 22 23 23 23 22 22 21 21 21 21
10 8 9 10 13 16 16 15 14 13 13 14 14 15 13 12 13 12 11 11 10 10 8 4 1 7 15 18 18 18 17 16 14 15 15 15 15 15 14 14 13 13 12 11 12 13 14 14 13 13 14 15 15 15 15 17 18 18 18 19 21 22 24 25 25 25 25 24 25 30 31 25 22 22 22 23 24 25 26 27 26 26 25 24 25 24
11 9 8 7 6 9 12 12 12 12 12 12 12 10 10 10 10 12 13 13 11 11 12 8 3 9 18 20 21 19 16 14 12 12 13 14 15 14 14 15 15 15 15 14 14 14 14 15 15 16 17 18 18 19 19 20 19 20 20 20 20 21 22 24 26 26 25 24 25 26 26 23 22 22 23 24 26 28 29 30 30 30 29 28 28 28
14 13 12 9 5 5 7 7 9 10 10 11 11 10 10 10 10 10 10 11 9 9 15 13 7 9 19 24 23 20 16 13 11 11 13 13 14 15 15 16 17 17 18 18 18 18 18 18 18 18 19 20 21 21 20 19 19 19 20 22 23 23 22 22 24 27 28 29 29 28 27 25 23 23 24 24 26 29 32 33 33 33 32 32 32 32
15 16 16 16 15 14 14 13 13 14 13 14 15 15 14 13 13 12 11 12 11 10 15 18 10 9 19 25 24 20 15 14 15 16 17 17 17 18 18 19 19 20 20 21 21 22 22 23 23 23 23 23 24 25 24 24 23 23 23 24 24 25 24 24 25 27 28 30 32 32 33 30 26 25 25 26 27 30 33 35 36 37 36 36 36 36
15 17 18 19 19 18 17 16 16 17 18 18 17 16 16 15 16 17 17 17 17 14 16 19 15 14 19 21 21 20 20 21 20 20 20 21 20 20 21 21 22 22 23 23 23 23 24 24 25 26 26 25 25 26 27 27 28 28 28 29 29 29 28 27 28 28 28 29 31 33 34 34 31 28 27 28 30 33 35 36 37 39 41 41 41 40
15 17 18 19 20 19 18 17 16 17 18 19 19 19 19 19 19 20 21 21 19 19 21 23 20 21 22 21 23 27 27 26 24 23 22 21 21 21 21 22 23 23 24 25 25 25 25 25 26 26 27 28 28 28 29 30 31 32 32 33 33 33 33 33 32 31 30 30 30 31 34 34 34 32 31 31 32 34 36 37 38 41 44 44 44 44
16 17 16 17 19 20 18 17 17 18 19 21 22 22 22 22 22 21 21 20 20 23 26 25 23 25 25 23 24 27 28 28 27 25 23 22 21 21 21 21 21 22 23 24 25 26 26 26 26 26 27 29 30 31 32 33 33 34 35 35 35 34 34 35 36 36 35 33 31 31 33 34 35 35 35 34 34 34 37 39 41 44 46 46 46 46
19 18 17 18 22 25 22 19 19 18 19 22 23 23 22 24 25 25 25 24 24 27 28 25 27 30 28 24 25 26 26 26 26 24 24 23 22 22 22 22 21 21 22 22 22 23 24 24 25 26 26 27 29 30 31 32 33 33 34 34 33 32 32 33 35 36 36 35 33 32 33 34 35 36 36 37 37 37 40 42 44 47 48 46 45 46
20 21 21 20 23 27 24 22 23 22 24 29 30 26 23 24 26 28 29 28 28 28 28 28 31 33 28 24 25 25 24 23 22 22 23 22 22 21 21 21 21 21 22 22 22 23 24 25 25 26 27 27 28 29 30 30 30 30 30 30 30 30 29 30 31 34 35 35 34 33 32 33 34 35 36 37 39 40 43 43 43 45 46 44 44 46
21 22 22 18 19 24 22 19 21 21 20 26 32 31 29 29 30 30 30 30 28 28 29 31 32 30 26 24 23 22 22 22 22 22 22 22 21 20 20 20 21 22 23 23 24 25 25 26 27 27 27 28 28 28 28 28 28 27 27 27 28 28 29 29 30 31 33 35 35 35 34 33 33 34 34 36 38 41 45 44 41 42 43 43 45 48
20 21 20 16 16 21 18 13 13 12 12 20 26 25 23 24 25 27 29 29 28 28 29 29 29 28 27 25 20 17 18 20 21 21 21 21 21 21 21 22 22 22 23 23 23 24 25 26 27 27 28 27 27 27 27 27 27 27 27 27 28 28 29 30 30 31 32 33 35 37 37 36 35 34 34 34 36 39 43 43 41 40 39 39 43 47
15 15 16 15 16 19 16 9 5 7 11 17 18 13 11 13 15 19 23 24 24 24 25 26 27 27 25 20 14 14 18 20 20 21 20 20 20 21 21 21 22 22 22 22 22 23 23 24 25 26 26 26 26 27 27 27 28 28 29 29 29 29 29 30 31 32 33 34 35 36 37 38 39 38 36 35 35 37 39 40 40 39 37 37 40 45
9 9 11 13 14 14 12 8 7 8 12 12 11 10 11 13 15 18 20 20 21 22 22 23 24 22 19 16 15 17 20 20 21 20 18 18 18 19 19 19 19 20 20 20 21 22 22 23 24 25 26 27 28 28 29 29 30 31 32 31 31 31 31 31 31 32 34 36 37 37 37 38 38 39 40 38 37 37 37 37 37 37 36 36 38 43
10 9 10 12 11 11 11 12 14 17 17 15 14 14 14 14 16 18 18 17 18 19 20 21 20 19 17 17 18 19 19 21 20 17 15 16 16 17 18 18 17 18 19 20 21 22 24 25 27 28 30 30 31 32 32 32 33 34 35 35 34 33 33 33 33 33 35 37 38 38 39 39 39 39 40 40 40 39 38 37 38 37 36 36 38 41
12 11 10 11 10 10 12 11 9 9 9 9 10 12 15 15 16 17 17 16 17 20 21 20 19 18 18 17 18 19 21 22 21 15 13 15 16 17 18 19 19 20 21 23 24 26 27 29 30 31 33 34 34 34 34 35 36 37 38 38 37 35 35 35 34 34 36 37 37 38 38 40 41 40 39 39 39 38 37 37 38 38 37 37 39 41
12 11 11 11 10 10 11 8 5 4 5 6 6 8 13 15 16 17 16 15 19 22 21 19 18 17 16 15 16 19 20 23 22 16 14 16 18 18 20 21 22 24 26 27 29 30 31 33 34 35 36 36 37 36 36 37 38 40 41 40 39 38 37 35 35 36 37 37 37 37 37 38 39 40 39 38 36 35 34 34 36 37 37 38 40 43
11 11 10 11 11 11 12 11 10 9 9 9 8 8 11 13 15 13 8 9 16 19 18 19 19 16 15 13 15 17 19 20 21 19 18 20 21 21 23 25 26 28 29 30 32 34 36 36 37 38 38 38 38 38 38 38 39 41 42 41 41 40 38 36 36 37 39 39 38 37 36 36 37 38 38 35 33 32 32 34 36 38 39 41 43 43
14 12 10 10 10 9 10 12 12 12 13 13 13 12 13 14 13 10 7 8 14 17 17 18 19 17 15 13 14 17 18 19 21 22 22 23 24 25 26 28 30 31 32 34 36 37 38 39 39 40 40 39 39 39 38 39 40 41 41 42 42 41 39 36 36 37 40 42 41 39 36 35 36 37 36 33 31 30 31 35 39 39 38 38 39 39
12 10 7 8 9 10 11 13 12 11 11 11 12 12 12 11 9 10 10 11 12 14 15 16 16 16 16 16 17 20 21 21 24 25 26 27 28 30 30 31 33 34 35 36 37 38 39 40 41 41 41 40 39 39 39 39 40 41 41 41 41 40 38 37 37 38 39 41 41 40 38 36 35 35 34 32 31 31 33 36 38 37 35 34 35 35
9 11 12 12 12 12 12 12 9 7 6 6 8 11 12 11 11 13 14 13 14 15 17 18 18 19 20 22 23 25 26 26 27 28 29 31 32 33 34 35 36 37 37 37 37 38 39 41 41 41 41 40 39 39 39 40 41 41 41 41 39 38 37 38 39 39 38 38 39 38 37 36 34 33 31 29 28 30 34 37 36 36 34 33 32 29
13 14 14 13 10 8 9 9 6 5 6 7 13 19 21 20 20 22 22 21 21 22 22 23 23 24 25 28 29 30 31 32 32 33 34 34 35 36 36 37 37 37 38 37 37 38 39 40 41 40 40 39 39 40 41 41 42 43 42 41 38 36 36 37 38 39 38 36 36 37 36 33 31 30 29 27 26 28 33 36 36 33 29 26 24 22
12 11 12 14 15 15 19 20 17 15 16 19 24 28 29 28 25 24 25 26 25 24 24 26 27 27 28 30 31 32 33 33 34 34 34 35 35 35 36 36 36 36 37 37 37 38 38 39 40 40 40 40 40 42 43 43 44 44 43 41 38 37 36 36 37 38 36 34 34 34 33 30 28 27 25 25 26 28 32 34 31 25 21 18 17 17
13 14 17 22 23 24 27 28 26 23 22 22 25 26 26 26 25 24 24 25 22 20 22 26 28 29 29 29 30 32 32 33 33 34 33 33 34 34 34 35 35 36 37 38 38 37 37 38 40 41 42 42 42 43 44 45 45 45 43 41 39 37 36 36 37 36 34 33 32 31 29 26 26 26 23 24 28 31 33 31 24 19 16 15 14 14
15 17 19 22 23 24 25 25 23 22 21 20 21 22 22 24 25 26 26 24 21 22 25 28 29 30 30 30 31 32 33 33 34 35 35 34 35 35 35 36 36 37 38 38 38 36 37 38 40 41 42 42 43 44 46 46 45 44 43 41 39 37 35 35 36 36 34 31 29 27 26 25 24 23 23 26 31 32 27 22 17 14 12 11 11 12
16 17 19 21 23 25 27 26 24 23 23 22 23 24 24 24 26 26 25 25 25 27 29 29 29 30 30 30 31 32 34 34 35 36 36 36 36 36 36 36 37 37 38 38 37 35 36 37 38 39 41 42 43 44 46 46 44 43 40 38 36 33 32 33 35 36 34 29 25 24 24 23 22 24 27 29 29 26 21 16 13 11 9 9 11 14
16 19 20 21 23 24 25 24 23 23 23 21 20 22 23 24 26 27 27 27 29 30 30 29 29 29 31 31 32 33 35 35 35 35 36 37 37 36 36 36 36 37 37 36 34 33 34 35 36 37 39 41 42 44 45 43 40 37 34 32 30 27 25 27 30 31 28 24 21 21 20 19 21 27 30 30 27 23 19 15 11 9 9 11 13 14
17 19 18 19 22 23 22 21 22 25 28 25 21 21 24 26 28 29 30 30 30 30 30 31 31 31 32 32 32 34 35 36 35 35 36 37 36 35 35 35 36 36 34 32 31 31 32 33 34 36 38 39 40 40 39 36 32 30 28 26 24 21 19 21 22 21 18 17 17 18 18 19 24 28 29 27 23 18 14 10 8 8 9 11 12 13
17 18 17 19 23 23 22 22 22 26 30 29 24 24 27 29 30 31 30 28 28 29 30 32 33 32 32 31 32 33 35 35 34 34 35 36 35 35 35 35 35 34 32 30 30 31 31 32 33 35 36 36 35 35 33 30 27 25 23 21 18 16 17 18 15 15 17 19 21 22 24 27 30 29 25 20 15 12 9 7 7 8 9 9 10 11
Wind_Direction
242 247 255 263 277 274 246 255 252 239 246 262 287 312 312 312 315 320 323 321 314 308 312 316 294 264 256 253 252 258 252 243 254 271 282 289 279 257 245 244 246 253 257 249 248 256 261 261 258 256 255 256 260 261 269 286 290 303 322 332 335 334 336 340 343 350 353 344 332 327 318 301 281 261 250 247 245 243 242 242 245 247 248 249 249 248
245 250 260 269 278 259 220 221 235 238 242 252 271 300 314 315 313 318 325 327 321 316 314 316 309 278 265 258 242 242 241 241 254 265 276 293 289 264 250 246 248 252 251 246 248 253 258 261 260 259 258 259 259 256 260 270 273 285 309 323 328 329 334 337 340 346 351 346 334 329 327 313 292 272 256 248 244 243 243 242 244 247 250 252 253 253
249 254 261 259 268 253 227 234 249 258 253 248 264 289 305 311 311 313 319 321 318 315 310 308 311 302 290 285 251 234 236 245 256 257 260 275 281 271 257 249 248 250 249 247 252 257 261 264 263 262 263 260 254 247 248 255 266 280 298 312 318 323 330 335 337 341 348 347 337 331 335 329 307 286 270 258 250 246 245 245 245 246 249 253 256 257
244 233 209 207 309 287 253 260 267 267 261 253 263 285 296 303 309 310 309 313 312 306 301 298 298 295 292 293 277 249 242 248 254 252 252 259 264 266 262 251 246 248 252 256 262 265 264 263 262 265 266 260 253 255 257 259 270 281 290 296 300 313 324 330 334 337 344 347 338 332 340 338 309 280 266 260 255 249 248 249 249 249 249 252 256 259
233 230 273 288 307 299 278 274 268 265 266 263 266 274 285 296 305 305 304 306 305 297 293 291 291 287 281 279 277 266 257 257 257 252 252 256 259 262 259 250 247 250 256 261 264 263 262 263 264 267 264 256 256 271 273 269 271 270 272 276 282 298 315 323 328 333 341 345 338 329 338 339 310 270 250 247 243 237 245 264 271 268 263 262 262 261
247 263 287 292 296 295 295 286 268 268 273 272 272 274 288 300 301 299 300 303 300 295 286 279 282 287 283 279 274 270 265 262 259 253 253 257 260 261 260 257 256 257 260 263 263 260 259 260 261 263 258 253 258 278 282 274 268 262 262 266 273 287 304 312 318 329 338 341 335 325 331 337 320 291 244 234 217 169 78 10 340 321 300 283 276 274
269 280 283 284 290 291 295 290 274 273 274 273 274 278 291 299 297 297 298 297 291 286 281 261 250 265 277 277 274 273 269 264 261 259 258 261 262 261 261 261 259 260 263 264 263 261 257 253 252 256 255 251 257 273 279 277 270 264 263 265 270 280 295 301 308 323 333 336 332 322 325 332 324 321 358 10 86 82 48 8 344 333 322 306 290 285
269 274 274 280 288 289 289 289 278 267 268 274 278 278 283 286 287 296 299 294 280 272 270 258 251 261 270 269 272 278 279 278 275 272 270 266 263 263 261 259 254 254 259 263 263 262 258 251 246 251 251 245 249 260 263 272 271 268 268 270 273 276 284 289 299 315 324 329 329 322 326 330 321 315 325 347 358 8 4 348 335 327 319 312 301 291
270 262 258 264 283 295 292 284 276 268 269 273 276 273 276 279 277 282 297 296 275 260 263 261 254 261 271 273 283 285 283 288 286 279 277 266 262 262 258 255 252 251 252 258 262 260 255 246 243 247 243 237 246 254 250 253 261 266 265 269 272 272 277 282 291 306 314 321 325 321 322 325 318 312 312 324 334 338 335 330 325 320 315 311 305 297
283 269 260 258 271 287 276 258 283 294 279 269 265 267 273 277 276 282 292 277 252 236 252 263 252 242 272 290 292 290 295 309 306 291 275 277 285 275 260 256 254 250 250 254 252 241 231 224 229 238 232 231 243 244 239 241 248 262 264 265 270 271 274 278 287 299 308 316 321 312 307 319 322 313 310 314 318 319 318 316 315 315 313 311 306 301
287 270 261 254 258 267 252 242 256 266 264 257 257 267 275 276 276 280 271 248 237 240 248 258 251 234 260 293 277 278 319 318 312 301 291 301 309 288 263 260 256 249 250 250 234 211 208 206 213 225 223 228 243 241 236 237 242 259 267 269 274 271 270 275 285 297 307 316 319 304 295 305 315 314 309 310 310 309 311 315 316 315 314 312 307 303
301 279 263 250 246 252 254 251 253 255 252 251 255 262 268 272 270 266 245 215 194 253 253 253 246 223 220 251 245 287 307 309 311 308 306 313 320 299 270 274 267 245 238 233 215 202 205 206 211 218 216 221 239 244 242 241 241 247 257 264 266 263 266 273 283 295 307 317 317 304 296 298 303 308 309 309 308 309 313 319 321 319 316 312 307 303
311 306 280 255 241 240 248 254 258 255 250 249 250 250 252 280 339 269 244 203 215 248 243 220 200 210 235 250 263 290 294 306 316 314 315 316 321 315 285 277 281 241 221 216 209 203 202 206 212 216 215 219 232 243 246 245 242 238 241 251 252 247 254 265 274 287 303 315 315 306 300 300 300 299 305 311 311 313 322 326 324 320 318 314 309 304
308 306 293 265 244 238 244 253 259 256 250 246 244 242 236 148 73 282 258 292 267 256 215 193 193 233 246 252 287 314 312 318 317 315 319 316 315 319 305 286 288 257 221 215 213 209 205 205 210 214 218 224 231 239 245 241 233 230 237 247 251 246 243 252 263 273 291 306 307 305 302 301 301 296 294 302 308 317 327 329 325 322 320 318 314 309
290 286 290 269 240 239 242 247 256 258 251 244 241 242 239 227 214 231 224 206 237 231 171 184 205 242 233 250 312 324 322 317 307 310 320 321 318 317 312 302 296 274 247 237 224 213 205 202 205 208 214 221 224 231 236 230 227 234 242 249 256 258 249 246 255 264 282 295 295 297 299 298 299 291 284 287 298 312 323 328 326 324 324 321 318 315
265 270 279 262 247 258 261 253 247 247 246 242 239 237 240 241 238 233 233 222 213 180 158 192 213 237 246 273 293 295 282 258 289 311 315 318 317 313 307 301 301 304 292 276 243 217 205 202 205 208 212 218 221 225 226 226 235 241 242 248 257 263 259 252 252 259 270 280 285 291 295 297 299 293 285 284 292 301 311 320 322 323 324 319 315 315
252 260 270 270 268 270 271 266 248 239 242 235 226 226 228 235 240 237 239 231 203 195 224 217 216 216 227 254 236 210 221 245 282 300 302 307 312 314 307 294 290 303 307 300 274 230 212 209 212 215 219 224 226 226 226 230 237 234 235 248 256 259 259 257 255 255 257 264 276 288 292 293 298 301 292 282 283 288 298 310 315 320 326 321 315 314
253 259 264 271 276 270 263 258 242 234 238 231 222 224 224 227 235 228 203 89 109 212 242 226 212 195 183 183 196 203 224 255 274 285 293 303 307 311 310 295 285 294 301 301 299 276 232 222 223 224 226 228 226 223 224 227 230 230 239 255 259 259 260 260 261 260 258 259 264 275 286 289 289 292 288 276 273 278 288 300 306 313 322 326 324 321
259 264 266 265 264 259 248 241 234 227 231 237 239 235 230 230 224 207 188 136 171 227 269 240 221 208 201 209 219 220 231 247 252 251 264 287 291 291 300 296 287 289 292 289 289 293 273 236 231 233 233 231 223 216 217 219 225 234 246 255 256 258 260 258 258 258 255 255 255 256 264 275 277 276 276 273 270 273 279 288 296 302 308 314 319 321
270 261 263 262 253 247 239 234 237 239 235 243 247 236 230 233 222 203 193 178 176 197 249 269 259 222 217 229 232 220 214 212 208 210 230 245 246 236 228 228 244 258 270 273 273 279 276 249 236 235 236 233 224 219 220 222 227 235 243 246 243 247 253 254 257 258 255 254 255 253 249 256 266 267 266 268 269 272 273 276 285 291 293 297 303 307
284 258 254 259 252 245 238 236 243 245 233 229 231 223 216 215 210 208 215 211 193 179 165 184 274 251 222 215 203 195 192 193 200 212 223 226 225 221 213 210 219 230 237 241 246 254 253 244 237 232 232 230 225 224 228 231 233 236 239 239 233 234 241 247 255 261 261 258 258 256 249 246 254 260 261 261 265 268 268 269 276 281 285 288 292 295
286 273 264 258 254 254 252 248 244 237 227 224 228 228 224 223 218 208 220 218 207 206 185 168 224 240 194 181 182 186 192 199 208 214 216 219 224 230 233 237 245 249 244 236 230 227 223 222 229 228 227 227 224 226 232 237 239 241 243 241 234 230 234 239 246 253 260 262 261 259 255 249 248 252 257 258 259 262 263 265 269 273 278 283 285 287
284 277 270 261 258 261 266 265 254 246 249 254 256 254 251 246 237 220 220 227 221 227 219 190 230 210 180 180 185 191 198 203 209 213 215 219 222 225 232 235 240 244 246 248 248 248 247 242 239 235 230 230 233 232 236 240 243 247 250 246 241 239 237 237 238 243 251 259 261 260 258 256 250 247 250 255 258 260 260 261 264 267 272 276 279 282
285 275 269 265 260 259 263 265 262 262 265 266 266 266 261 253 245 240 247 248 237 228 213 191 229 191 183 191 199 198 201 205 208 212 215 221 223 222 223 225 226 229 230 237 245 250 254 254 254 254 248 247 250 251 252 255 254 254 255 252 251 250 246 244 240 238 241 246 253 258 259 259 257 251 250 253 258 260 259 260 261 263 266 269 272 276
284 274 269 275 276 267 265 265 265 264 262 260 262 262 254 248 245 242 242 238 234 232 222 215 232 196 188 197 205 203 204 209 216 225 228 231 235 235 235 234 233 233 232 232 236 240 247 251 254 259 262 264 263 260 259 260 258 255 254 255 258 257 255 253 247 243 242 243 246 253 257 258 257 257 256 256 258 261 260 259 259 260 262 266 268 270
285 277 270 261 242 241 253 258 264 264 258 256 257 256 255 251 242 235 233 226 224 229 224 222 237 215 200 202 205 202 205 220 240 257 259 258 259 258 257 255 252 251 250 248 247 248 250 251 252 256 260 264 265 264 262 261 262 262 261 261 261 259 258 258 255 252 252 252 252 252 254 254 254 258 261 260 262 264 262 258 257 258 259 261 264 267
280 275 272 263 249 247 254 259 263 266 266 266 267 266 264 259 249 244 241 234 233 236 230 224 221 209 202 201 203 208 224 252 269 277 278 277 275 273 270 268 266 265 265 265 265 264 261 260 260 261 262 263 263 264 265 265 267 269 270 270 268 266 263 261 261 259 258 258 258 257 257 255 251 251 256 260 264 268 267 261 256 255 256 259 261 263
273 269 266 263 257 257 261 262 261 262 264 264 265 265 262 260 258 254 253 253 249 246 245 242 238 234 225 217 224 243 261 273 277 279 279 278 278 278 277 274 274 274 275 275 276 275 273 270 267 267 269 270 269 269 268 268 270 272 273 275 275 274 272 267 264 261 259 258 259 259 259 258 253 248 247 251 257 263 268 267 260 254 252 255 257 260
270 267 264 262 261 261 263 265 260 257 257 257 257 260 261 262 262 260 260 262 257 251 259 265 264 262 261 256 256 263 269 273 276 277 275 274 273 272 272 274 276 277 277 278 278 278 278 277 275 274 275 275 275 274 274 274 275 275 276 276 276 276 275 272 268 264 261 258 256 255 256 256 254 249 245 246 249 253 260 265 264 259 252 251 255 258
272 272 270 268 267 264 262 264 265 261 259 259 257 257 259 258 260 262 261 261 259 260 266 272 274 274 276 274 269 267 267 268 271 273 272 270 267 265 266 269 270 271 273 274 275 276 278 278 279 279 278 278 278 277 276 277 277 277 277 276 276 275 272 270 267 264 262 259 255 251 249 250 251 249 249 250 250 250 253 255 259 261 256 251 253 257
279 278 275 276 278 274 267 264 265 263 263 262 257 254 255 255 255 254 253 253 255 260 267 273 276 277 278 276 273 270 267 265 265 266 267 266 263 261 262 262 262 264 267 269 272 274 276 277 279 279 280 280 280 280 279 279 279 279 278 277 276 274 270 266 264 262 261 260 257 252 248 247 247 247 250 253 253 252 250 252 257 260 256 249 248 254
283 283 284 287 285 280 277 272 266 264 266 266 260 254 250 249 249 248 249 252 254 260 270 273 273 278 281 276 270 266 264 261 258 256 257 256 253 252 253 254 258 262 266 270 273 275 276 278 279 279 280 281 282 282 282 281 281 280 280 280 278 276 272 268 264 261 259 258 258 258 256 253 251 250 251 252 254 253 252 254 260 263 260 252 248 253
285 284 287 288 281 279 284 283 275 271 270 266 262 258 253 249 249 249 250 251 252 259 267 269 271 279 283 275 266 263 259 253 247 243 243 243 245 249 254 259 263 267 271 274 276 278 279 280 281 281 281 281 281 281 282 282 281 280 279 278 277 275 274 271 268 265 262 259 258 258 259 259 258 257 255 254 254 254 255 258 263 266 264 257 251 252
285 283 283 279 270 275 284 286 276 265 258 265 269 268 263 256 252 252 252 253 256 260 263 267 273 278 276 272 269 260 249 241 236 236 238 242 249 256 263 267 271 273 276 278 279 281 281 281 282 282 282 282 283 283 283 284 284 283 281 279 277 276 274 272 270 269 267 264 262 259 258 258 259 260 260 258 257 256 257 260 264 268 269 263 254 251
279 275 274 266 260 270 278 275 262 250 254 269 274 267 257 251 247 249 254 255 256 258 260 264 268 270 269 267 255 235 231 233 236 241 245 250 255 261 265 269 273 277 279 281 282 282 283 283 283 282 283 284 286 287 289 289 289 288 287 285 283 281 278 275 272 270 268 265 264 262 260 259 258 258 259 260 261 261 261 262 264 268 273 271 261 253
269 261 265 266 262 265 260 219 208 256 273 274 269 258 256 252 243 243 247 248 247 248 251 254 256 257 256 248 233 229 232 237 242 247 250 254 259 264 269 273 276 277 277 278 279 280 282 284 284 285 286 286 287 289 291 292 293 291 290 289 287 285 282 279 276 272 269 266 263 261 261 260 259 258 258 259 261 263 264 265 266 268 271 269 260 253
263 261 267 272 264 259 250 232 242 269 282 276 265 261 258 250 239 236 238 241 241 241 243 245 246 245 243 240 237 238 240 244 246 245 247 255 260 266 272 275 274 273 275 278 281 285 287 289 290 291 291 290 291 292 292 293 292 291 290 290 288 285 282 279 276 273 269 267 265 263 260 259 259 258 258 258 259 261 264 267 267 266 265 262 257 254
265 267 272 273 264 257 261 262 263 271 282 279 263 248 243 242 238 237 241 245 246 245 245 244 242 238 237 238 241 244 248 251 249 243 247 256 261 267 272 274 274 276 281 285 288 291 294 296 296 295 295 295 294 294 293 292 291 290 289 288 286 284 280 277 272 268 266 266 266 265 262 259 258 257 258 258 259 260 262 264 264 261 258 256 256 256
270 272 270 265 260 257 256 258 255 251 268 286 277 245 238 240 239 243 249 248 244 244 243 236 229 228 229 234 240 245 251 254 253 253 257 260 265 273 276 278 281 284 287 290 292 294 296 297 297 297 297 296 295 293 292 290 289 289 288 286 283 280 277 273 268 264 263 263 264 264 263 261 258 257 259 258 259 260 259 259 260 258 253 252 251 249
282 286 278 266 263 263 258 255 258 263 269 277 279 262 244 238 237 241 246 235 228 230 230 225 221 221 226 234 244 250 256 262 266 268 267 266 270 275 278 281 285 287 289 291 293 295 295 296 296 296 296 295 293 291 289 287 287 286 284 282 280 277 274 272 269 264 261 260 261 262 262 261 258 256 258 259 260 259 257 257 258 255 253 252 248 243
297 296 283 267 262 264 265 265 266 271 274 274 272 263 251 245 241 236 235 230 222 220 224 224 221 221 227 240 255 262 267 273 277 279 277 274 274 275 278 282 285 287 289 291 292 293 294 294 295 295 294 292 289 287 286 285 284 283 281 279 277 275 272 271 270 267 263 261 261 261 262 262 258 255 256 258 258 256 255 256 253 246 245 246 242 238
301 300 282 265 270 277 274 271 273 276 276 272 267 261 259 260 255 245 244 244 236 236 242 244 244 248 255 264 273 279 280 281 283 285 285 283 281 280 282 284 284 286 288 289 290 290 291 292 293 292 290 287 284 283 283 282 282 282 281 279 277 277 274 270 269 269 266 263 262 261 263 262 259 256 255 257 259 257 253 250 242 232 230 233 232 234
286 291 289 285 286 283 267 259 267 271 257 260 279 287 290 291 284 274 268 263 261 265 268 271 275 281 286 289 290 291 290 288 288 288 288 287 286 286 287 287 287 288 289 288 288 288 288 289 290 289 286 284 282 281 281 282 283 283 281 280 279 278 275 269 267 268 269 267 262 261 262 261 260 258 255 255 259 252 238 230 225 221 221 225 228 233
277 278 284 285 282 272 251 236 227 223 231 264 295 299 299 298 295 294 292 286 283 283 282 281 283 289 293 295 294 293 291 290 290 289 288 287 287 288 288 288 287 287 287 287 287 285 284 284 285 284 283 282 281 280 281 282 285 285 282 281 281 278 274 269 266 267 269 267 261 259 261 261 259 258 255 253 255 243 223 213 213 213 213 216 224 234
272 260 265 268 264 264 265 261 258 258 263 274 285 288 288 288 288 290 292 293 293 291 288 287 289 291 292 291 289 288 288 288 288 288 287 287 287 287 286 285 283 282 282 282 281 280 280 281 282 282 281 281 281 281 281 282 286 286 284 282 280 276 271 267 265 266 267 264 259 258 259 258 256 254 251 249 246 232 213 206 206 205 206 214 227 240
272 266 268 270 270 271 272 271 273 275 273 273 275 276 277 280 281 281 285 290 290 284 282 286 288 288 286 283 283 284 286 286 287 287 286 286 285 282 281 280 278 276 275 275 276 277 279 281 281 282 282 281 281 282 282 283 286 286 282 279 277 274 270 267 266 265 263 258 255 255 256 253 250 247 240 236 232 219 204 198 197 200 210 225 236 246
292 284 277 275 277 277 276 277 281 281 277 273 272 270 269 274 277 278 279 278 273 267 271 277 280 280 281 282 283 284 285 285 284 284 284 283 281 279 278 277 277 276 275 274 275 278 280 281 281 282 282 281 282 282 282 283 284 283 279 277 275 273 271 269 266 263 259 254 252 253 251 245 242 239 234 231 228 217 202 194 195 205 220 233 244 255
302 292 285 284 284 283 283 286 289 286 281 277 275 274 273 273 271 270 268 266 262 263 267 272 276 279 281 281 281 281 281 280 280 280 280 280 280 281 282 282 281 280 280 280 280 280 281 281 281 281 281 282 282 283 283 284 283 280 277 276 275 272 270 266 263 260 257 253 249 246 240 234 234 235 231 224 215 203 190 188 198 212 227 239 250 258
300 294 295 296 294 290 290 292 294 291 285 278 274 274 273 271 268 267 265 263 264 267 272 275 278 280 280 281 282 283 283 281 281 281 282 282 283 285 287 287 286 285 284 284 282 280 280 280 281 282 282 283 284 285 286 285 281 279 278 277 273 268 262 257 254 251 247 244 238 231 226 226 226 221 211 198 189 182 181 188 199 212 231 245 254 261
306 304 308 308 303 300 298 298 296 292 287 284 281 275 270 268 268 268 267 269 273 276 278 279 278 277 280 284 287 289 288 287 286 285 285 285 286 288 289 289 288 287 287 286 282 280 280 281 283 284 285 285 286 288 287 285 283 283 282 278 271 261 250 243 240 234 224 217 210 205 204 206 204 196 186 178 176 175 175 185 201 219 238 252 263 270
311 312 314 310 304 301 297 295 291 285 283 284 284 277 273 273 275 275 275 278 279 279 280 280 280 282 285 288 291 292 292 291 289 288 287 286 286 287 289 290 289 288 288 286 284 283 283 284 285 286 287 287 288 288 286 284 284 283 279 276 268 246 225 216 205 187 181 184 187 191 193 191 186 180 173 168 166 161 164 187 212 229 246 262 274 282
Height
3097 3097 3098 3099 3100 3100 3100 3100 3101 3102 3102 3103 3104 3104 3104 3105 3105 3105 3106 3105 3105 3105 3104 3104 3103 3103 3104 3104 3104 3106 3107 3109 3110 3110 3110 3110 3110 3111 3113 3115 3116 3118 3120 3121 3122 3123 3124 3125 3126 3126 3126 3127 3127 3127 3128 3129 3129 3129 3130 3130 3130 3129 3128 3128 3127 3126 3125 3124 3123 3123 3123 3123 3123 3123 3123 3123 3123 3124 3124 3124 3124 3124 3125 3125 3125 3125
3096 3097 3097 3098 3099 3099 3100 3100 3100 3101 3101 3102 3103 3103 3104 3104 3104 3104 3105 3104 3104 3104 3103 3102 3102 3101 3102 3103 3103 3104 3106 3107 3108 3109 3109 3109 3109 3110 3111 3113 3115 3117 3119 3120 3121 3121 3122 3123 3124 3124 3125 3125 3126 3126 3127 3128 3128 3129 3129 3129 3129 3129 3128 3127 3126 3125 3124 3124 3123 3122 3122 3122 3122 3122 3122 3123 3123 3123 3123 3123 3123 3123 3123 3123 3123 3124
3095 3096 3097 3098 3098 3099 3099 3099 3100 3100 3101 3101 3102 3102 3103 3103 3103 3103 3104 3104 3103 3103 3102 3102 3101 3100 3100 3101 3102 3104 3105 3106 3107 3108 3108 3109 3109 3109 3110 3111 3113 3115 3117 3118 3119 3120 3121 3122 3122 3123 3123 3124 3124 3125 3126 3126 3127 3128 3128 3128 3128 3128 3127 3127 3126 3125 3124 3123 3122 3121 3121 3121 3122 3122 3122 3122 3122 3122 3122 3122 3122 3122 3122 3122 3122 3123
3095 3095 3096 3097 3097 3098 3098 3098 3099 3099 3100 3100 3101 3101 3102 3102 3102 3102 3102 3102 3102 3102 3102 3101 3100 3100 3100 3100 3101 3102 3104 3104 3105 3106 3107 3108 3108 3108 3109 3110 3112 3113 3114 3116 3117 3118 3119 3120 3120 3121 3122 3122 3123 3124 3124 3125 3126 3127 3127 3128 3128 3127 3127 3126 3125 3124 3123 3123 3122 3121 3120 3121 3121 3121 3121 3121 3121 3122 3122 3122 3122 3122 3122 3122 3122 3122
3094 3095 3095 3096 3096 3097 3097 3097 3098 3098 3099 3099 3100 3100 3101 3101 3101 3101 3101 3101 3101 3101 3101 3101 3099 3099 3099 3100 3101 3101 3102 3103 3104 3105 3106 3107 3107 3107 3107 3108 3110 3111 3112 3113 3115 3116 3116 3118 3119 3119 3120 3121 3122 3123 3123 3124 3125 3126 3126 3127 3127 3126 3126 3126 3125 3124 3123 3122 3121 3121 3120 3121 3121 3121 3121 3121 3121 3121 3122 3122 3121 3121 3121 3121 3121 3121
3094 3094 3095 3095 3095 3095 3096 3096 3097 3097 3098 3098 3099 3100 3100 3100 3101 3100 3100 3100 3100 3100 3100 3100 3099 3098 3098 3099 3100 3100 3101 3102 3103 3103 3104 3105 3105 3105 3106 3106 3107 3108 3109 3110 3112 3113 3114 3115 3116 3117 3118 3120 3121 3121 3122 3123 3124 3124 3125 3126 3126 3126 3126 3125 3124 3123 3122 3122 3121 3121 3121 3121 3121 3121 3121 3121 3121 3121 3122 3122 3122 3121 3121 3121 3121 3121
3093 3093 3094 3094 3094 3094 3095 3095 3096 3096 3097 3097 3098 3099 3099 3099 3099 3099 3099 3099 3099 3099 3099 3099 3099 3097 3097 3098 3098 3099 3099 3100 3101 3102 3103 3103 3103 3103 3104 3104 3104 3105 3106 3107 3108 3109 3110 3111 3113 3115 3116 3118 3119 3120 3120 3121 3122 3123 3124 3124 3125 3125 3125 3124 3124 3123 3122 3121 3121 3120 3120 3121 3121 3121 3122 3121 3121 3121 3122 3122 3122 3122 3122 3121 3121 3121
3092 3093 3093 3093 3093 3093 3094 3094 3095 3095 3096 3096 3097 3098 3098 3098 3099 3099 3099 3099 3098 3098 3098 3098 3098 3097 3096 3096 3097 3097 3097 3098 3098 3099 3100 3101 3101 3100 3100 3099 3100 3101 3102 3104 3105 3105 3106 3108 3110 3112 3115 3117 3118 3118 3119 3120 3121 3122 3123 3123 3124 3124 3124 3124 3123 3123 3122 3121 3121 3120 3120 3120 3121 3121 3121 3122 3121 3121 3122 3122 3122 3122 3121 3121 3121 3121
3091 3091 3092 3092 3092 3093 3093 3093 3094 3094 3095 3095 3096 3097 3097 3097 3098 3098 3098 3098 3098 3098 3098 3098 3098 3097 3095 3095 3096 3096 3095 3096 3095 3096 3097 3097 3097 3096 3095 3095 3095 3097 3099 3100 3101 3102 3103 3105 3108 3110 3113 3115 3116 3117 3118 3119 3120 3120 3121 3122 3122 3122 3123 3123 3122 3122 3121 3121 3120 3120 3120 3120 3120 3121 3121 3121 3121 3121 3121 3121 3121 3121 3121 3121 3120 3120
3089 3090 3090 3091 3091 3092 3092 3092 3093 3093 3094 3094 3095 3096 3096 3096 3096 3097 3097 3097 3097 3097 3097 3097 3097 3097 3095 3094 3095 3094 3093 3093 3093 3094 3094 3094 3094 3093 3092 3092 3093 3094 3096 3097 3099 3100 3101 3103 3106 3109 3111 3113 3114 3115 3116 3117 3118 3119 3119 3120 3120 3121 3121 3122 3121 3121 3121 3120 3120 3120 3120 3120 3120 3120 3121 3121 3121 3121 3121 3121 3121 3120 3120 3120 3119 3119
3088 3088 3089 3089 3090 3091 3091 3091 3092 3093 3093 3094 3094 3095 3095 3095 3095 3095 3096 3096 3097 3097 3096 3096 3096 3096 3095 3093 3093 3093 3092 3092 3092 3092 3092 3092 3092 3091 3091 3090 3091 3092 3093 3095 3097 3098 3100 3102 3104 3106 3109 3111 3112 3113 3114 3115 3116 3118 3118 3119 3119 3119 3120 3120 3120 3120 3120 3120 3120 3120 3119 3120 3120 3120 3120 3121 3121 3121 3120 3120 3120 3120 3119 3119 3118 3118
3087 3087 3087 3087 3089 3090 3090 3091 3091 3092 3092 3093 3093 3094 3094 3094 3094 3095 3095 3095 3096 3096 3095 3094 3095 3095 3095 3092 3092 3092 3091 3090 3091 3090 3090 3090 3090 3089 3089 3089 3089 3089 3090 3093 3095 3096 3098 3100 3102 3104 3106 3108 3110 3111 3112 3113 3115 3116 3117 3117 3117 3118 3118 3119 3119 3119 3119 3119 3119 3119 3119 3119 3119 3120 3120 3120 3121 3120 3120 3120 3119 3119 3118 3118 3117 3117
3086 3086 3085 3086 3087 3088 3089 3090 3090 3091 3091 3092 3092 3093 3094 3094 3094 3095 3095 3095 3096 3094 3093 3093 3094 3094 3093 3091 3091 3091 3090 3090 3089 3089 3088 3088 3088 3087 3087 3087 3087 3087 3088 3091 3093 3095 3096 3098 3100 3102 3104 3106 3108 3109 3110 3112 3113 3114 3115 3115 3116 3116 3117 3118 3118 3118 3118 3118 3118 3119 3119 3118 3118 3119 3119 3120 3120 3120 3120 3119 3119 3118 3118 3117 3116 3116
3086 3085 3085 3085 3085 3086 3087 3088 3088 3089 3089 3090 3091 3092 3092 3094 3096 3096 3096 3096 3095 3092 3092 3093 3093 3092 3090 3090 3090 3090 3089 3089 3088 3088 3087 3087 3087 3086 3086 3086 3086 3086 3087 3089 3091 3093 3095 3097 3098 3100 3102 3104 3106 3108 3109 3110 3111 3113 3113 3114 3114 3115 3116 3116 3117 3117 3117 3117 3118 3118 3118 3118 3118 3118 3118 3119 3120 3120 3120 3119 3118 3118 3117 3116 3116 3115
3085 3085 3084 3084 3084 3085 3086 3086 3086 3087 3088 3088 3089 3090 3090 3091 3092 3093 3093 3093 3091 3091 3091 3092 3092 3090 3089 3089 3089 3088 3088 3088 3087 3087 3086 3086 3086 3086 3085 3085 3085 3086 3087 3088 3089 3091 3093 3096 3097 3099 3100 3102 3104 3106 3108 3109 3110 3111 3111 3112 3112 3113 3114 3115 3115 3116 3116 3117 3117 3117 3117 3117 3117 3117 3117 3118 3119 3119 3119 3119 3118 3117 3117 3116 3115 3115
3085 3084 3083 3084 3084 3084 3084 3085 3085 3086 3086 3086 3087 3088 3088 3088 3088 3089 3089 3089 3089 3090 3091 3091 3089 3088 3088 3088 3088 3088 3087 3087 3087 3086 3086 3085 3085 3085 3084 3084 3084 3085 3086 3087 3087 3089 3091 3093 3095 3097 3099 3100 3102 3104 3106 3107 3108 3109 3109 3109 3110 3111 3112 3113 3114 3114 3115 3116 3116 3116 3116 3116 3116 3116 3116 3116 3117 3118 3118 3118 3118 3117 3116 3116 3115 3114
3083 3082 3083 3083 3083 3083 3083 3083 3084 3084 3084 3084 3085 3085 3085 3086 3087 3087 3088 3088 3089 3090 3089 3088 3087 3087 3087 3087 3087 3087 3087 3087 3087 3086 3085 3085 3084 3084 3083 3083 3084 3084 3085 3086 3087 3088 3089 3091 3093 3094 3096 3098 3100 3102 3103 3104 3106 3107 3107 3107 3109 3110 3110 3111 3112 3113 3114 3114 3114 3115 3115 3115 3115 3115 3115 3115 3116 3116 3116 3117 3117 3116 3116 3115 3115 3114
3082 3081 3081 3082 3082 3082 3082 3082 3082 3082 3083 3083 3083 3083 3083 3084 3085 3085 3086 3088 3090 3090 3087 3085 3085 3085 3085 3085 3085 3086 3086 3086 3086 3085 3085 3084 3083 3083 3082 3082 3082 3083 3084 3085 3086 3087 3088 3089 3091 3092 3094 3096 3098 3099 3101 3102 3103 3104 3105 3106 3107 3108 3108 3109 3110 3111 3112 3112 3113 3114 3114 3114 3114 3114 3114 3114 3114 3115 3115 3115 3115 3115 3115 3114 3114 3114
3081 3080 3080 3080 3081 3081 3081 3081 3081 3081 3081 3081 3081 3081 3082 3082 3082 3083 3084 3086 3088 3089 3087 3084 3084 3084 3083 3084 3084 3084 3085 3085 3084 3084 3084 3083 3083 3083 3082 3081 3081 3082 3083 3084 3085 3086 3087 3088 3089 3090 3092 3094 3096 3097 3098 3099 3099 3100 3102 3103 3105 3106 3106 3107 3108 3109 3110 3110 3111 3112 3112 3113 3113 3113 3113 3113 3113 3113 3113 3113 3113 3113 3113 3113 3113 3113
3080 3079 3079 3079 3079 3079 3079 3079 3079 3079 3080 3080 3080 3080 3080 3080 3081 3081 3081 3082 3083 3086 3087 3084 3083 3082 3081 3082 3083 3083 3083 3083 3083 3083 3083 3083 3082 3082 3082 3082 3082 3082 3082 3083 3084 3085 3086 3087 3087 3088 3090 3092 3094 3095 3095 3096 3097 3097 3098 3100 3101 3103 3104 3105 3105 3106 3107 3107 3108 3109 3110 3110 3111 3111 3112 3112 3112 3112 3112 3112 3111 3111 3111 3110 3110 3110
3079 3079 3078 3078 3078 3078 3078 3078 3078 3078 3078 3078 3078 3078 3078 3079 3079 3079 3080 3080 3080 3083 3085 3084 3082 3080 3079 3080 3080 3081 3081 3080 3081 3082 3082 3082 3082 3082 3082 3082 3083 3083 3083 3083 3083 3084 3085 3086 3086 3086 3088 3090 3091 3093 3094 3095 3095 3096 3096 3097 3098 3099 3100 3102 3103 3103 3104 3105 3105 3106 3107 3108 3108 3109 3109 3110 3110 3110 3110 3110 3109 3109 3108 3108 3108 3108
3078 3078 3077 3077 3077 3077 3077 3076 3076 3077 3076 3077 3077 3077 3077 3077 3078 3078 3078 3078 3078 3079 3081 3081 3079 3077 3077 3078 3078 3079 3079 3078 3079 3080 3080 3081 3081 3081 3081 3082 3082 3082 3083 3083 3083 3084 3084 3085 3085 3085 3087 3088 3089 3090 3091 3092 3093 3094 3094 3095 3095 3096 3097 3098 3099 3100 3101 3102 3102 3103 3103 3105 3106 3106 3107 3107 3107 3107 3107 3107 3107 3107 3106 3106 3105 3105
3077 3076 3076 3075 3075 3075 3075 3075 3075 3075 3075 3075 3075 3075 3076 3076 3076 3077 3076 3076 3077 3077 3077 3078 3077 3076 3076 3077 3077 3077 3076 3077 3077 3078 3078 3079 3079 3080 3080 3080 3081 3081 3081 3082 3082 3083 3083 3084 3084 3084 3085 3086 3086 3087 3088 3089 3090 3091 3092 3092 3093 3093 3094 3094 3095 3096 3096 3097 3098 3099 3100 3102 3103 3104 3104 3104 3104 3104 3105 3105 3105 3104 3104 3103 3103 3102
3075 3075 3074 3074 3073 3073 3073 3073 3073 3073 3073 3073 3073 3073 3074 3074 3074 3074 3074 3074 3074 3074 3075 3076 3075 3074 3074 3076 3076 3075 3075 3075 3075 3075 3076 3077 3077 3078 3078 3078 3079 3079 3080 3080 3080 3080 3081 3082 3082 3082 3083 3083 3084 3084 3085 3086 3087 3088 3089 3090 3091 3091 3092 3092 3092 3092 3092 3092 3093 3095 3096 3099 3100 3100 3100 3101 3101 3102 3102 3102 3102 3101 3101 3100 3100 3099
3074 3074 3073 3073 3073 3072 3072 3072 3071 3071 3072 3071 3071 3071 3071 3072 3072 3072 3072 3072 3072 3071 3072 3073 3071 3071 3072 3073 3074 3074 3074 3073 3073 3073 3074 3074 3074 3075 3076 3076 3077 3077 3078 3078 3078 3078 3079 3079 3079 3080 3080 3080 3081 3082 3083 3084 3084 3085 3086 3087 3088 3089 3089 3089 3089 3089 3089 3089 3089 3090 3092 3094 3095 3096 3097 3097 3098 3099 3099 3099 3098 3098 3098 3098 3097 3096
3072 3072 3071 3071 3071 3071 3071 3071 3070 3070 3070 3070 3069 3070 3070 3070 3070 3070 3070 3070 3069 3069 3069 3069 3068 3069 3070 3071 3071 3072 3072 3071 3071 3071 3072 3072 3072 3073 3073 3073 3074 3074 3075 3075 3076 3076 3076 3077 3077 3077 3078 3078 3078 3079 3080 3081 3082 3083 3083 3084 3085 3085 3086 3086 3086 3087 3086 3086 3086 3086 3087 3088 3090 3091 3093 3094 3094 3095 3096 3096 3095 3095 3095 3095 3094 3093
3070 3069 3069 3069 3068 3068 3068 3069 3069 3068 3068 3068 3068 3068 3068 3068 3068 3069 3068 3067 3067 3067 3066 3065 3067 3068 3068 3069 3069 3070 3070 3070 3070 3069 3070 3070 3070 3070 3070 3071 3071 3071 3072 3072 3072 3073 3073 3074 3074 3074 3075 3075 3076 3077 3077 3078 3079 3079 3080 3080 3081 3081 3082 3082 3083 3083 3083 3083 3083 3083 3083 3084 3085 3086 3088 3089 3090 3091 3091 3091 3092 3091 3091 3091 3090 3090
3067 3067 3066 3066 3065 3065 3066 3066 3066 3066 3065 3065 3065 3065 3065 3066 3066 3066 3065 3065 3066 3065 3062 3063 3066 3067 3067 3068 3068 3067 3067 3068 3067 3067 3067 3068 3068 3068 3068 3068 3068 3069 3069 3069 3069 3069 3070 3070 3071 3071 3071 3072 3073 3073 3074 3075 3075 3075 3076 3076 3076 3077 3077 3078 3079 3079 3079 3080 3080 3080 3080 3081 3081 3082 3082 3083 3085 3085 3085 3086 3087 3087 3086 3086 3085 3085
3065 3064 3063 3063 3062 3063 3063 3063 3063 3063 3063 3063 3063 3062 3063 3063 3063 3063 3062 3062 3063 3061 3059 3061 3063 3063 3064 3066 3066 3065 3065 3065 3064 3064 3065 3065 3065 3065 3065 3065 3066 3066 3066 3066 3066 3066 3066 3066 3067 3067 3068 3068 3068 3069 3070 3070 3071 3071 3071 3072 3072 3072 3073 3073 3074 3074 3075 3075 3076 3076 3077 3077 3077 3077 3077 3078 3078 3079 3080 3081 3082 3081 3080 3080 3081 3081
3063 3061 3061 3060 3059 3059 3060 3060 3060 3060 3060 3059 3059 3059 3060 3060 3059 3059 3059 3059 3059 3058 3056 3058 3059 3058 3060 3061 3062 3062 3062 3062 3062 3062 3062 3062 3062 3062 3063 3063 3063 3063 3063 3063 3063 3063 3063 3063 3063 3063 3064 3064 3064 3064 3065 3065 3066 3066 3067 3067 3067 3068 3068 3068 3069 3069 3070 3070 3071 3071 3072 3072 3073 3073 3073 3073 3074 3075 3075 3075 3075 3075 3075 3075 3076 3076
3060 3058 3058 3058 3056 3054 3056 3058 3058 3057 3056 3055 3055 3056 3056 3056 3056 3055 3055 3055 3055 3054 3054 3055 3053 3053 3056 3058 3058 3058 3058 3058 3059 3059 3059 3059 3059 3060 3060 3060 3060 3060 3060 3060 3060 3059 3059 3059 3059 3059 3059 3060 3060 3060 3060 3060 3061 3061 3061 3062 3062 3062 3063 3063 3063 3064 3064 3065 3066 3066 3067 3068 3068 3068 3069 3069 3070 3070 3068 3067 3068 3068 3068 3070 3071 3072
3057 3055 3054 3055 3052 3049 3052 3055 3054 3054 3053 3049 3048 3051 3053 3052 3051 3051 3051 3051 3051 3051 3051 3051 3049 3048 3052 3054 3053 3053 3054 3054 3055 3056 3056 3056 3056 3057 3057 3057 3057 3057 3057 3057 3057 3056 3056 3056 3056 3056 3056 3056 3056 3055 3056 3056 3056 3056 3056 3057 3057 3057 3057 3058 3058 3058 3059 3060 3060 3061 3062 3063 3063 3064 3065 3065 3065 3064 3063 3063 3064 3064 3064 3066 3067 3067
3053 3052 3051 3053 3049 3045 3048 3050 3050 3051 3049 3041 3040 3046 3048 3047 3047 3047 3047 3048 3048 3049 3048 3046 3045 3046 3048 3049 3049 3050 3050 3051 3052 3052 3052 3053 3053 3053 3054 3054 3054 3054 3054 3054 3053 3053 3052 3052 3052 3052 3052 3052 3052 3051 3051 3051 3051 3051 3052 3052 3052 3052 3052 3053 3053 3053 3054 3055 3055 3056 3056 3057 3058 3058 3059 3059 3060 3059 3058 3058 3060 3060 3061 3062 3063 3063
3049 3048 3049 3049 3046 3043 3044 3046 3047 3047 3041 3034 3036 3041 3042 3042 3043 3043 3043 3044 3045 3046 3044 3043 3043 3043 3044 3044 3045 3047 3047 3048 3048 3049 3050 3050 3050 3050 3051 3050 3050 3050 3050 3050 3049 3049 3049 3049 3048 3048 3047 3047 3047 3047 3047 3047 3046 3046 3047 3047 3047 3047 3047 3047 3048 3048 3049 3049 3050 3050 3051 3051 3052 3053 3053 3054 3054 3054 3054 3054 3055 3055 3056 3058 3059 3059
3046 3046 3045 3045 3044 3042 3042 3045 3046 3041 3034 3033 3036 3037 3037 3039 3040 3040 3040 3041 3042 3042 3041 3041 3041 3041 3041 3041 3042 3043 3044 3044 3045 3046 3046 3047 3047 3047 3047 3047 3046 3046 3046 3046 3045 3045 3045 3045 3044 3044 3044 3043 3043 3043 3042 3042 3042 3042 3041 3041 3042 3042 3042 3042 3043 3043 3043 3044 3044 3044 3045 3045 3046 3047 3048 3048 3049 3049 3049 3050 3051 3051 3052 3053 3053 3053
3043 3044 3043 3042 3042 3040 3040 3042 3040 3034 3031 3033 3035 3034 3035 3036 3037 3037 3037 3037 3038 3038 3038 3038 3038 3038 3038 3038 3039 3040 3040 3041 3041 3042 3043 3043 3043 3043 3043 3042 3042 3042 3042 3041 3041 3041 3041 3041 3040 3040 3040 3040 3039 3039 3038 3038 3038 3037 3036 3036 3036 3036 3037 3037 3037 3037 3037 3038 3038 3039 3039 3039 3040 3041 3042 3043 3044 3044 3044 3045 3046 3047 3048 3048 3048 3048
3042 3042 3041 3040 3039 3038 3037 3036 3034 3031 3031 3032 3032 3032 3033 3034 3034 3034 3034 3034 3035 3035 3035 3035 3035 3035 3035 3036 3036 3036 3037 3037 3038 3039 3039 3039 3039 3039 3038 3038 3038 3038 3038 3037 3037 3037 3037 3037 3036 3036 3035 3035 3035 3034 3034 3033 3033 3032 3031 3031 3031 3031 3031 3031 3031 3031 3031 3031 3032 3032 3033 3034 3034 3035 3036 3037 3038 3038 3039 3039 3040 3041 3042 3042 3043 3044
3040 3040 3039 3038 3037 3036 3036 3034 3033 3031 3030 3029 3029 3031 3031 3031 3032 3032 3032 3032 3032 3031 3031 3032 3032 3033 3033 3033 3033 3033 3033 3033 3034 3036 3036 3036 3035 3035 3035 3035 3034 3034 3034 3033 3033 3033 3032 3032 3031 3031 3030 3029 3029 3029 3028 3028 3027 3026 3025 3025 3025 3026 3026 3025 3026 3026 3025 3026 3026 3026 3027 3027 3028 3029 3030 3031 3032 3033 3034 3034 3034 3034 3036 3037 3039 3040
3038 3038 3037 3037 3035 3035 3035 3033 3032 3031 3029 3027 3028 3029 3029 3030 3030 3030 3030 3029 3028 3028 3029 3029 3030 3030 3030 3030 3030 3030 3030 3029 3030 3032 3033 3032 3032 3032 3031 3031 3031 3030 3030 3029 3028 3028 3027 3027 3026 3025 3025 3024 3023 3023 3022 3021 3020 3019 3019 3019 3019 3019 3019 3020 3020 3020 3020 3020 3020 3020 3021 3022 3022 3023 3024 3025 3026 3028 3029 3030 3030 3030 3031 3033 3034 3035
3036 3036 3035 3034 3034 3033 3033 3031 3030 3029 3028 3027 3028 3028 3028 3028 3028 3029 3028 3026 3025 3026 3026 3026 3027 3027 3027 3028 3027 3027 3027 3027 3027 3028 3029 3029 3029 3028 3028 3027 3027 3026 3026 3025 3024 3023 3022 3021 3020 3019 3019 3018 3017 3016 3016 3015 3014 3013 3012 3012 3012 3012 3013 3013 3014 3014 3014 3013 3014 3015 3016 3016 3017 3018 3019 3020 3022 3023 3024 3025 3026 3026 3027 3029 3030 3030
3033 3033 3033 3032 3032 3031 3031 3029 3028 3027 3026 3026 3026 3026 3026 3027 3026 3026 3026 3024 3024 3024 3024 3024 3025 3024 3024 3025 3024 3024 3024 3024 3024 3024 3025 3025 3025 3024 3024 3023 3022 3022 3021 3020 3019 3018 3017 3015 3014 3013 3012 3012 3011 3010 3009 3008 3007 3006 3006 3005 3005 3006 3007 3008 3008 3007 3007 3007 3008 3009 3010 3011 3012 3013 3014 3016 3017 3019 3020 3020 3020 3021 3023 3025 3027 3028
3032 3031 3030 3030 3030 3029 3029 3027 3026 3025 3025 3024 3024 3024 3024 3025 3025 3024 3023 3023 3023 3023 3022 3022 3022 3022 3022 3021 3021 3021 3021 3021 3021 3020 3021 3021 3020 3020 3020 3019 3018 3017 3017 3016 3015 3013 3011 3010 3008 3007 3006 3005 3004 3004 3003 3002 3000 2999 2999 2999 2999 3000 3001 3001 3001 3001 3001 3001 3002 3003 3005 3006 3007 3008 3010 3011 3013 3014 3015 3016 3017 3018 3020 3022 3024 3025
3031 3030 3028 3028 3028 3027 3026 3025 3025 3024 3023 3022 3022 3022 3022 3023 3022 3022 3021 3022 3021 3021 3021 3020 3020 3020 3019 3018 3018 3018 3017 3017 3017 3017 3016 3016 3015 3015 3015 3014 3013 3012 3012 3011 3009 3008 3005 3003 3002 3001 3000 2999 2998 2997 2996 2995 2993 2992 2992 2992 2993 2994 2994 2994 2994 2994 2995 2995 2996 2998 2999 3001 3002 3004 3005 3007 3009 3010 3011 3012 3013 3015 3017 3019 3021 3022
3029 3028 3027 3026 3026 3024 3023 3022 3022 3021 3021 3021 3021 3020 3020 3020 3020 3019 3018 3018 3019 3019 3018 3017 3017 3017 3016 3015 3014 3014 3013 3012 3012 3012 3012 3011 3011 3010 3009 3009 3008 3007 3006 3005 3004 3002 2999 2997 2995 2994 2993 2993 2992 2991 2989 2988 2986 2985 2985 2986 2987 2988 2987 2987 2988 2988 2989 2990 2991 2993 2995 2996 2998 3000 3001 3002 3005 3007 3009 3010 3010 3011 3013 3015 3017 3019
3026 3026 3025 3024 3023 3022 3019 3018 3019 3019 3019 3019 3018 3018 3017 3017 3017 3017 3015 3015 3015 3015 3014 3013 3013 3013 3012 3011 3009 3008 3008 3007 3007 3006 3006 3006 3005 3005 3004 3003 3002 3001 3000 2999 2997 2996 2993 2991 2989 2988 2987 2987 2986 2984 2983 2982 2979 2978 2978 2979 2980 2981 2981 2981 2982 2982 2984 2985 2986 2988 2990 2992 2994 2995 2997 3000 3001 3002 3004 3007 3008 3009 3011 3013 3014 3015
3023 3023 3022 3020 3019 3018 3016 3015 3016 3017 3016 3016 3015 3015 3014 3014 3014 3014 3013 3012 3011 3011 3010 3009 3009 3008 3007 3006 3004 3003 3003 3002 3001 3000 3000 3000 2999 2999 2998 2997 2996 2995 2993 2992 2991 2990 2988 2986 2984 2982 2981 2980 2980 2978 2977 2975 2973 2972 2972 2973 2973 2974 2974 2975 2975 2977 2978 2980 2981 2984 2986 2988 2990 2991 2994 2997 2998 2998 3000 3003 3005 3008 3009 3011 3012 3013
3020 3020 3019 3017 3016 3015 3012 3012 3013 3013 3012 3012 3012 3011 3011 3011 3010 3010 3009 3008 3008 3007 3006 3006 3005 3003 3003 3002 3000 2999 2998 2997 2996 2995 2995 2994 2993 2992 2992 2991 2989 2988 2987 2986 2985 2984 2982 2980 2978 2977 2975 2974 2974 2972 2970 2969 2967 2966 2966 2967 2967 2968 2968 2969 2969 2970 2972 2974 2977 2979 2982 2983 2985 2988 2990 2993 2995 2997 2999 3001 3004 3006 3008 3009 3010 3011
3017 3016 3015 3014 3013 3011 3009 3009 3010 3009 3008 3009 3008 3008 3008 3007 3006 3005 3005 3004 3003 3002 3002 3001 3001 2999 2998 2998 2997 2995 2993 2992 2991 2990 2989 2988 2987 2986 2986 2985 2983 2982 2981 2980 2979 2978 2976 2974 2973 2971 2969 2968 2967 2965 2963 2962 2961 2960 2960 2961 2961 2961 2962 2962 2963 2964 2967 2970 2973 2975 2977 2980 2982 2984 2986 2989 2993 2996 2998 3001 3003 3004 3006 3007 3008 3009
3015 3013 3012 3011 3009 3007 3006 3006 3006 3004 3003 3005 3005 3005 3004 3002 3001 3000 3000 2999 2998 2998 2997 2997 2996 2995 2994 2993 2992 2990 2988 2987 2987 2985 2983 2982 2981 2981 2980 2979 2977 2976 2975 2974 2974 2972 2970 2969 2967 2965 2963 2962 2960 2959 2956 2955 2954 2954 2954 2954 2955 2955 2956 2956 2957 2959 2962 2966 2968 2971 2973 2976 2979 2981 2983 2986 2990 2994 2996 2999 3001 3002 3004 3005 3006 3006
3012 3011 3010 3008 3005 3004 3003 3004 3003 3000 2998 3000 3002 3001 2999 2998 2996 2995 2995 2995 2994 2994 2993 2992 2991 2991 2990 2989 2987 2985 2983 2982 2981 2980 2978 2977 2976 2976 2975 2973 2972 2971 2970 2969 2968 2966 2965 2964 2962 2960 2957 2956 2954 2952 2950 2948 2948 2948 2948 2948 2949 2950 2951 2951 2953 2955 2959 2962 2965 2968 2971 2974 2978 2981 2983 2986 2989 2992 2994 2997 2999 3001 3003 3004 3004 3003
3010 3008 3007 3005 3002 3001 3001 3001 3001 2997 2994 2995 2997 2996 2994 2993 2992 2991 2991 2991 2991 2990 2989 2987 2986 2986 2985 2984 2983 2981 2978 2977 2976 2975 2973 2972 2971 2971 2969 2968 2967 2966 2965 2965 2963 2961 2960 2959 2957 2954 2952 2950 2949 2947 2945 2944 2943 2943 2944 2944 2944 2945 2947 2949 2951 2954 2958 2961 2964 2968 2971 2974 2977 2980 2983 2985 2988 2991 2993 2996 2998 3000 3001 3001 3001 3000